"Sample Date","Sample Time","Sensor Name","Sample Value","Units","Flow Rate","Sample Interval","Sample Volume","Laser Status","Number Channels","Micron Size 0","Counts/Channel 0","Micron Size 1","Counts/Channel 1","Micron Size 2","Counts/Channel 2","Micron Size 3","Counts/Channel 3","Micron Size 4","Counts/Channel 4","Micron Size 5","Counts/Channel 5","Micron Size 6","Counts/Channel 6","Micron Size 7","Counts/Channel 7","Micron Size 8","Counts/Channel 8","Micron Size 9","Counts/Channel 9","Micron Size 10","Counts/Channel 10","Micron Size 11","Counts/Channel 11","Micron Size 12","Counts/Channel 12","Micron Size 13","Counts/Channel 13","Micron Size 14","Counts/Channel 14","Micron Size 15","Counts/Channel 15","Micron Size 16","Counts/Channel 16","Micron Size 17","Counts/Channel 17","Micron Size 18","Counts/Channel 18","Micron Size 19","Counts/Channel 19","Micron Size 20","Counts/Channel 20","Micron Size 21","Counts/Channel 21","Micron Size 22","Counts/Channel 22","Micron Size 23","Counts/Channel 23","Micron Size 24","Counts/Channel 24","Micron Size 25","Counts/Channel 25","Micron Size 26","Counts/Channel 26","Micron Size 27","Counts/Channel 27","Micron Size 28","Counts/Channel 28","Micron Size 29","Counts/Channel 29","Micron Size 30","Counts/Channel 30","Micron Size 31","Counts/Channel 31"
"07/02/06","16:00:02","AMMA06",64659.000,"cc",28292.643,6.00,2829.264,1,6,0.100,34677.000,0.200,24007.000,0.300,3695.000,0.500,1378.000,1.000,901.000,5.000,1.000
"07/02/06","16:00:08","AMMA06",64717.000,"cc",28311.098,6.00,2831.110,1,6,0.100,34353.000,0.200,24228.000,0.300,3798.000,0.500,1426.000,1.000,911.000,5.000,1.000
"07/02/06","16:00:14","AMMA06",64300.000,"cc",28345.400,6.00,2834.540,1,6,0.100,34163.000,0.200,24140.000,0.300,3688.000,0.500,1416.000,1.000,891.000,5.000,2.000
"07/02/06","16:00:20","AMMA06",64366.000,"cc",28336.074,6.00,2833.608,1,6,0.100,34375.000,0.200,23916.000,0.300,3786.000,0.500,1421.000,1.000,868.000,5.000,0
"07/02/06","16:00:26","AMMA06",64341.000,"cc",28330.408,6.00,2833.041,1,6,0.100,34225.000,0.200,24088.000,0.300,3785.000,0.500,1403.000,1.000,840.000,5.000,0
"07/02/06","16:00:32","AMMA06",64429.000,"cc",28258.672,6.00,2825.867,1,6,0.100,34045.000,0.200,24255.000,0.300,3832.000,0.500,1399.000,1.000,896.000,5.000,2.000
"07/02/06","16:00:38","AMMA06",64499.000,"cc",28283.953,6.00,2828.396,1,6,0.100,34417.000,0.200,23959.000,0.300,3799.000,0.500,1398.000,1.000,925.000,5.000,1.000
"07/02/06","16:00:44","AMMA06",64493.000,"cc",28351.186,6.00,2835.119,1,6,0.100,33929.000,0.200,24366.000,0.300,3900.000,0.500,1400.000,1.000,898.000,5.000,0
"07/02/06","16:00:50","AMMA06",64539.000,"cc",28313.451,6.00,2831.345,1,6,0.100,34202.000,0.200,24190.000,0.300,3823.000,0.500,1403.000,1.000,921.000,5.000,0
"07/02/06","16:00:56","AMMA06",64073.000,"cc",28377.086,6.00,2837.709,1,6,0.100,34045.000,0.200,23874.000,0.300,3795.000,0.500,1392.000,1.000,967.000,5.000,0
"07/02/06","16:01:02","AMMA06",64189.000,"cc",28289.861,6.00,2828.986,1,6,0.100,34237.000,0.200,23753.000,0.300,3834.000,0.500,1468.000,1.000,897.000,5.000,0
"07/02/06","16:01:08","AMMA06",64090.000,"cc",28307.334,6.00,2830.734,1,6,0.100,33939.000,0.200,24089.000,0.300,3805.000,0.500,1403.000,1.000,854.000,5.000,0
"07/02/06","16:01:14","AMMA06",63957.000,"cc",28334.115,6.00,2833.412,1,6,0.100,33645.000,0.200,24241.000,0.300,3815.000,0.500,1378.000,1.000,877.000,5.000,1.000
"07/02/06","16:01:20","AMMA06",64425.000,"cc",28373.307,6.00,2837.331,1,6,0.100,34065.000,0.200,24269.000,0.300,3861.000,0.500,1351.000,1.000,879.000,5.000,0
"07/02/06","16:01:26","AMMA06",63916.000,"cc",28320.238,6.00,2832.024,1,6,0.100,33927.000,0.200,23959.000,0.300,3720.000,0.500,1409.000,1.000,901.000,5.000,0
"07/02/06","16:01:32","AMMA06",64432.000,"cc",28284.766,6.00,2828.477,1,6,0.100,34410.000,0.200,23923.000,0.300,3862.000,0.500,1321.000,1.000,916.000,5.000,0
"07/02/06","16:01:38","AMMA06",64324.000,"cc",28336.168,6.00,2833.617,1,6,0.100,34220.000,0.200,24022.000,0.300,3776.000,0.500,1400.000,1.000,904.000,5.000,2.000
"07/02/06","16:01:44","AMMA06",64158.000,"cc",28279.783,6.00,2827.979,1,6,0.100,34163.000,0.200,24061.000,0.300,3676.000,0.500,1395.000,1.000,863.000,5.000,0
"07/02/06","16:01:50","AMMA06",63928.000,"cc",28356.863,6.00,2835.687,1,6,0.100,33808.000,0.200,24172.000,0.300,3653.000,0.500,1374.000,1.000,919.000,5.000,2.000
"07/02/06","16:01:56","AMMA06",63815.000,"cc",28355.231,6.00,2835.523,1,6,0.100,33969.000,0.200,23803.000,0.300,3702.000,0.500,1364.000,1.000,977.000,5.000,0
"07/02/06","16:02:02","AMMA06",63608.000,"cc",28312.979,6.00,2831.298,1,6,0.100,33838.000,0.200,23812.000,0.300,3616.000,0.500,1472.000,1.000,869.000,5.000,1.000
"07/02/06","16:02:08","AMMA06",64666.000,"cc",28277.586,6.00,2827.759,1,6,0.100,34410.000,0.200,24178.000,0.300,3709.000,0.500,1415.000,1.000,954.000,5.000,0
"07/02/06","16:02:14","AMMA06",64556.000,"cc",28352.994,6.00,2835.300,1,6,0.100,34153.000,0.200,24208.000,0.300,3827.000,0.500,1409.000,1.000,959.000,5.000,0
"07/02/06","16:02:20","AMMA06",63737.000,"cc",28305.299,6.00,2830.530,1,6,0.100,34163.000,0.200,23714.000,0.300,3562.000,0.500,1435.000,1.000,863.000,5.000,0
"07/02/06","16:02:26","AMMA06",64355.000,"cc",28270.639,6.00,2827.064,1,6,0.100,34319.000,0.200,23990.000,0.300,3732.000,0.500,1393.000,1.000,919.000,5.000,2.000
"07/02/06","16:02:32","AMMA06",63832.000,"cc",28331.820,6.00,2833.182,1,6,0.100,34198.000,0.200,23742.000,0.300,3631.000,0.500,1422.000,1.000,839.000,5.000,0
"07/02/06","16:02:38","AMMA06",64225.000,"cc",28297.076,6.00,2829.708,1,6,0.100,34428.000,0.200,23842.000,0.300,3571.000,0.500,1480.000,1.000,903.000,5.000,1.000
"07/02/06","16:02:44","AMMA06",63810.000,"cc",28341.840,6.00,2834.184,1,6,0.100,34022.000,0.200,23644.000,0.300,3809.000,0.500,1484.000,1.000,851.000,5.000,0
"07/02/06","16:02:50","AMMA06",64422.000,"cc",28345.541,6.00,2834.554,1,6,0.100,34529.000,0.200,23948.000,0.300,3687.000,0.500,1385.000,1.000,871.000,5.000,2.000
"07/02/06","16:02:56","AMMA06",64374.000,"cc",28286.201,6.00,2828.620,1,6,0.100,34408.000,0.200,23915.000,0.300,3693.000,0.500,1435.000,1.000,922.000,5.000,1.000
"07/02/06","16:03:02","AMMA06",64634.000,"cc",28280.674,6.00,2828.068,1,6,0.100,34640.000,0.200,23970.000,0.300,3752.000,0.500,1383.000,1.000,889.000,5.000,0
"07/02/06","16:03:08","AMMA06",64639.000,"cc",28326.617,6.00,2832.662,1,6,0.100,34455.000,0.200,24050.000,0.300,3830.000,0.500,1403.000,1.000,901.000,5.000,0
"07/02/06","16:03:14","AMMA06",64797.000,"cc",28329.588,6.00,2832.959,1,6,0.100,34844.000,0.200,24069.000,0.300,3611.000,0.500,1393.000,1.000,880.000,5.000,0
"07/02/06","16:03:20","AMMA06",64415.000,"cc",28322.543,6.00,2832.254,1,6,0.100,34783.000,0.200,23727.000,0.300,3676.000,0.500,1360.000,1.000,869.000,5.000,0
"07/02/06","16:03:26","AMMA06",64294.000,"cc",28325.875,6.00,2832.588,1,6,0.100,34513.000,0.200,23760.000,0.300,3699.000,0.500,1443.000,1.000,878.000,5.000,1.000
"07/02/06","16:03:32","AMMA06",64006.000,"cc",28273.424,6.00,2827.343,1,6,0.100,34111.000,0.200,23815.000,0.300,3687.000,0.500,1495.000,1.000,898.000,5.000,0
"07/02/06","16:03:38","AMMA06",64019.000,"cc",28358.922,6.00,2835.892,1,6,0.100,34667.000,0.200,23547.000,0.300,3581.000,0.500,1388.000,1.000,836.000,5.000,0
"07/02/06","16:03:44","AMMA06",63851.000,"cc",28321.533,6.00,2832.154,1,6,0.100,34544.000,0.200,23426.000,0.300,3577.000,0.500,1400.000,1.000,903.000,5.000,1.000
"07/02/06","16:03:50","AMMA06",63516.000,"cc",28308.943,6.00,2830.895,1,6,0.100,34270.000,0.200,23382.000,0.300,3622.000,0.500,1429.000,1.000,813.000,5.000,0
"07/02/06","16:03:56","AMMA06",63638.000,"cc",28319.789,6.00,2831.979,1,6,0.100,34322.000,0.200,23507.000,0.300,3558.000,0.500,1396.000,1.000,855.000,5.000,0
"07/02/06","16:04:02","AMMA06",63581.000,"cc",28343.805,6.00,2834.381,1,6,0.100,34161.000,0.200,23498.000,0.300,3633.000,0.500,1387.000,1.000,902.000,5.000,0
"07/02/06","16:04:08","AMMA06",63689.000,"cc",28303.631,6.00,2830.363,1,6,0.100,34184.000,0.200,23423.000,0.300,3699.000,0.500,1502.000,1.000,881.000,5.000,0
"07/02/06","16:04:14","AMMA06",63721.000,"cc",28276.600,6.00,2827.660,1,6,0.100,34140.000,0.200,23520.000,0.300,3643.000,0.500,1475.000,1.000,942.000,5.000,1.000
"07/02/06","16:04:20","AMMA06",63903.000,"cc",28329.022,6.00,2832.902,1,6,0.100,34379.000,0.200,23675.000,0.300,3602.000,0.500,1357.000,1.000,890.000,5.000,0
"07/02/06","16:04:26","AMMA06",63279.000,"cc",28309.053,6.00,2830.906,1,6,0.100,34075.000,0.200,23460.000,0.300,3529.000,0.500,1360.000,1.000,855.000,5.000,0
"07/02/06","16:04:32","AMMA06",63501.000,"cc",28266.934,6.00,2826.694,1,6,0.100,34059.000,0.200,23667.000,0.300,3543.000,0.500,1367.000,1.000,864.000,5.000,1.000
"07/02/06","16:04:38","AMMA06",63806.000,"cc",28339.619,6.00,2833.962,1,6,0.100,34309.000,0.200,23459.000,0.300,3797.000,0.500,1393.000,1.000,847.000,5.000,1.000
"07/02/06","16:04:44","AMMA06",64230.000,"cc",28321.074,6.00,2832.108,1,6,0.100,34523.000,0.200,23712.000,0.300,3703.000,0.500,1429.000,1.000,863.000,5.000,0
"07/02/06","16:04:50","AMMA06",63457.000,"cc",28341.875,6.00,2834.188,1,6,0.100,34140.000,0.200,23291.000,0.300,3709.000,0.500,1460.000,1.000,856.000,5.000,1.000
"07/02/06","16:04:56","AMMA06",64175.000,"cc",28356.805,6.00,2835.681,1,6,0.100,34343.000,0.200,23861.000,0.300,3665.000,0.500,1385.000,1.000,919.000,5.000,2.000
"07/02/06","16:05:02","AMMA06",63416.000,"cc",28315.289,6.00,2831.529,1,6,0.100,33853.000,0.200,23544.000,0.300,3655.000,0.500,1470.000,1.000,892.000,5.000,2.000
"07/02/06","16:05:08","AMMA06",63123.000,"cc",28325.408,6.00,2832.541,1,6,0.100,33788.000,0.200,23487.000,0.300,3567.000,0.500,1415.000,1.000,866.000,5.000,0
"07/02/06","16:05:14","AMMA06",63760.000,"cc",28314.799,6.00,2831.480,1,6,0.100,34360.000,0.200,23540.000,0.300,3562.000,0.500,1390.000,1.000,908.000,5.000,0
"07/02/06","16:05:20","AMMA06",63955.000,"cc",28336.514,6.00,2833.652,1,6,0.100,34247.000,0.200,23675.000,0.300,3742.000,0.500,1404.000,1.000,887.000,5.000,0
"07/02/06","16:05:26","AMMA06",64281.000,"cc",28277.293,6.00,2827.730,1,6,0.100,34479.000,0.200,23774.000,0.300,3704.000,0.500,1424.000,1.000,900.000,5.000,0
"07/02/06","16:05:32","AMMA06",63651.000,"cc",28345.014,6.00,2834.502,1,6,0.100,34021.000,0.200,23742.000,0.300,3593.000,0.500,1418.000,1.000,877.000,5.000,0
"07/02/06","16:05:38","AMMA06",64105.000,"cc",28303.705,6.00,2830.371,1,6,0.100,34236.000,0.200,23693.000,0.300,3771.000,0.500,1478.000,1.000,927.000,5.000,0
"07/02/06","16:05:44","AMMA06",63621.000,"cc",28295.893,6.00,2829.589,1,6,0.100,33851.000,0.200,23767.000,0.300,3657.000,0.500,1447.000,1.000,897.000,5.000,2.000
"07/02/06","16:05:50","AMMA06",64475.000,"cc",28321.658,6.00,2832.166,1,6,0.100,34658.000,0.200,23765.000,0.300,3714.000,0.500,1438.000,1.000,900.000,5.000,0
"07/02/06","16:05:56","AMMA06",63665.000,"cc",28280.897,6.00,2828.090,1,6,0.100,34139.000,0.200,23630.000,0.300,3627.000,0.500,1392.000,1.000,877.000,5.000,0
"07/02/06","16:06:02","AMMA06",63826.000,"cc",28343.609,6.00,2834.361,1,6,0.100,34116.000,0.200,23612.000,0.300,3688.000,0.500,1482.000,1.000,928.000,5.000,0
"07/02/06","16:06:08","AMMA06",64380.000,"cc",28369.861,6.00,2836.986,1,6,0.100,34512.000,0.200,23913.000,0.300,3673.000,0.500,1425.000,1.000,856.000,5.000,1.000
"07/02/06","16:06:14","AMMA06",63874.000,"cc",28317.857,6.00,2831.786,1,6,0.100,34080.000,0.200,23661.000,0.300,3781.000,0.500,1463.000,1.000,889.000,5.000,0
"07/02/06","16:06:20","AMMA06",63891.000,"cc",28297.225,6.00,2829.723,1,6,0.100,34173.000,0.200,23742.000,0.300,3721.000,0.500,1368.000,1.000,887.000,5.000,0
"07/02/06","16:06:26","AMMA06",64085.000,"cc",28325.025,6.00,2832.503,1,6,0.100,34151.000,0.200,23972.000,0.300,3759.000,0.500,1381.000,1.000,822.000,5.000,0
"07/02/06","16:06:32","AMMA06",64449.000,"cc",28321.717,6.00,2832.172,1,6,0.100,34532.000,0.200,24004.000,0.300,3647.000,0.500,1403.000,1.000,863.000,5.000,0
"07/02/06","16:06:38","AMMA06",64298.000,"cc",28356.182,6.00,2835.618,1,6,0.100,34291.000,0.200,24099.000,0.300,3675.000,0.500,1364.000,1.000,869.000,5.000,0
"07/02/06","16:06:44","AMMA06",63986.000,"cc",28251.551,6.00,2825.155,1,6,0.100,34240.000,0.200,23668.000,0.300,3718.000,0.500,1438.000,1.000,922.000,5.000,0
"07/02/06","16:06:50","AMMA06",64705.000,"cc",28309.088,6.00,2830.909,1,6,0.100,34592.000,0.200,24137.000,0.300,3728.000,0.500,1392.000,1.000,856.000,5.000,0
"07/02/06","16:06:56","AMMA06",64510.000,"cc",28319.023,6.00,2831.903,1,6,0.100,34354.000,0.200,23969.000,0.300,3805.000,0.500,1457.000,1.000,925.000,5.000,0
"07/02/06","16:07:02","AMMA06",64878.000,"cc",28326.160,6.00,2832.616,1,6,0.100,34598.000,0.200,24188.000,0.300,3771.000,0.500,1415.000,1.000,905.000,5.000,1.000
"07/02/06","16:07:08","AMMA06",64367.000,"cc",28331.277,6.00,2833.128,1,6,0.100,34114.000,0.200,24000.000,0.300,3884.000,0.500,1430.000,1.000,939.000,5.000,0
"07/02/06","16:07:14","AMMA06",64178.000,"cc",28316.473,6.00,2831.648,1,6,0.100,34113.000,0.200,24046.000,0.300,3768.000,0.500,1401.000,1.000,848.000,5.000,2.000
"07/02/06","16:07:20","AMMA06",64484.000,"cc",28342.113,6.00,2834.211,1,6,0.100,34311.000,0.200,24005.000,0.300,3875.000,0.500,1424.000,1.000,868.000,5.000,1.000
"07/02/06","16:07:26","AMMA06",64479.000,"cc",28318.076,6.00,2831.808,1,6,0.100,34471.000,0.200,23866.000,0.300,3841.000,0.500,1381.000,1.000,920.000,5.000,0
"07/02/06","16:07:32","AMMA06",64221.000,"cc",28289.928,6.00,2828.993,1,6,0.100,34160.000,0.200,24168.000,0.300,3682.000,0.500,1380.000,1.000,830.000,5.000,1.000
"07/02/06","16:07:38","AMMA06",64764.000,"cc",28300.820,6.00,2830.082,1,6,0.100,34287.000,0.200,24346.000,0.300,3798.000,0.500,1422.000,1.000,911.000,5.000,0
"07/02/06","16:07:44","AMMA06",64665.000,"cc",28381.215,6.00,2838.122,1,6,0.100,34348.000,0.200,24241.000,0.300,3772.000,0.500,1386.000,1.000,917.000,5.000,1.000
"07/02/06","16:07:50","AMMA06",63802.000,"cc",28250.172,6.00,2825.017,1,6,0.100,34055.000,0.200,23934.000,0.300,3643.000,0.500,1342.000,1.000,827.000,5.000,1.000
"07/02/06","16:07:56","AMMA06",64248.000,"cc",28304.365,6.00,2830.437,1,6,0.100,34022.000,0.200,24277.000,0.300,3651.000,0.500,1427.000,1.000,870.000,5.000,1.000
"07/02/06","16:08:02","AMMA06",64133.000,"cc",28364.244,6.00,2836.425,1,6,0.100,33983.000,0.200,24068.000,0.300,3738.000,0.500,1439.000,1.000,905.000,5.000,0
"07/02/06","16:08:08","AMMA06",64436.000,"cc",28303.979,6.00,2830.398,1,6,0.100,34419.000,0.200,23786.000,0.300,3918.000,0.500,1437.000,1.000,875.000,5.000,1.000
"07/02/06","16:08:14","AMMA06",64247.000,"cc",28310.447,6.00,2831.045,1,6,0.100,34089.000,0.200,24158.000,0.300,3600.000,0.500,1458.000,1.000,941.000,5.000,1.000
"07/02/06","16:08:20","AMMA06",64267.000,"cc",28294.170,6.00,2829.417,1,6,0.100,34143.000,0.200,23983.000,0.300,3795.000,0.500,1435.000,1.000,910.000,5.000,1.000
"07/02/06","16:08:26","AMMA06",63653.000,"cc",28252.568,6.00,2825.257,1,6,0.100,33773.000,0.200,23913.000,0.300,3721.000,0.500,1383.000,1.000,863.000,5.000,0
"07/02/06","16:08:32","AMMA06",64156.000,"cc",28389.043,6.00,2838.905,1,6,0.100,33762.000,0.200,24369.000,0.300,3831.000,0.500,1324.000,1.000,867.000,5.000,3.000
"07/02/06","16:08:38","AMMA06",64271.000,"cc",28341.553,6.00,2834.156,1,6,0.100,33764.000,0.200,24271.000,0.300,3898.000,0.500,1436.000,1.000,902.000,5.000,0
"07/02/06","16:08:44","AMMA06",64518.000,"cc",28321.283,6.00,2832.128,1,6,0.100,34197.000,0.200,24154.000,0.300,3873.000,0.500,1410.000,1.000,883.000,5.000,1.000
"07/02/06","16:20:20","AMMA06",64032.000,"cc",28357.459,6.00,2835.746,1,6,0.100,34196.000,0.200,23873.000,0.300,3679.000,0.500,1439.000,1.000,845.000,5.000,0
"07/02/06","16:20:26","AMMA06",64319.000,"cc",28342.690,6.00,2834.269,1,6,0.100,34747.000,0.200,23684.000,0.300,3599.000,0.500,1415.000,1.000,874.000,5.000,0
"07/02/06","16:20:32","AMMA06",64065.000,"cc",28307.322,6.00,2830.732,1,6,0.100,34283.000,0.200,23826.000,0.300,3676.000,0.500,1405.000,1.000,874.000,5.000,1.000
"07/02/06","16:20:38","AMMA06",64098.000,"cc",28279.967,6.00,2827.997,1,6,0.100,34381.000,0.200,23732.000,0.300,3743.000,0.500,1355.000,1.000,887.000,5.000,0
"07/02/06","16:20:44","AMMA06",64398.000,"cc",28315.586,6.00,2831.559,1,6,0.100,34588.000,0.200,23728.000,0.300,3752.000,0.500,1372.000,1.000,958.000,5.000,0
"07/02/06","16:20:50","AMMA06",64085.000,"cc",28353.346,6.00,2835.335,1,6,0.100,34234.000,0.200,23864.000,0.300,3708.000,0.500,1356.000,1.000,923.000,5.000,0
"07/02/06","16:20:56","AMMA06",64236.000,"cc",28297.461,6.00,2829.746,1,6,0.100,34301.000,0.200,23915.000,0.300,3690.000,0.500,1407.000,1.000,923.000,5.000,0
"07/02/06","16:21:02","AMMA06",63597.000,"cc",28368.102,6.00,2836.810,1,6,0.100,34031.000,0.200,23647.000,0.300,3572.000,0.500,1389.000,1.000,958.000,5.000,0
"07/02/06","16:21:08","AMMA06",64331.000,"cc",28302.633,6.00,2830.263,1,6,0.100,34341.000,0.200,24057.000,0.300,3694.000,0.500,1338.000,1.000,901.000,5.000,0
"07/02/06","16:21:14","AMMA06",64222.000,"cc",28275.426,6.00,2827.543,1,6,0.100,34331.000,0.200,24046.000,0.300,3594.000,0.500,1398.000,1.000,853.000,5.000,0
"07/02/06","16:21:20","AMMA06",64074.000,"cc",28293.623,6.00,2829.363,1,6,0.100,34192.000,0.200,23791.000,0.300,3802.000,0.500,1406.000,1.000,883.000,5.000,0
"07/02/06","16:21:26","AMMA06",64193.000,"cc",28324.897,6.00,2832.490,1,6,0.100,34016.000,0.200,24168.000,0.300,3715.000,0.500,1435.000,1.000,859.000,5.000,0
"07/02/06","16:21:32","AMMA06",63887.000,"cc",28337.191,6.00,2833.719,1,6,0.100,33989.000,0.200,23807.000,0.300,3775.000,0.500,1443.000,1.000,872.000,5.000,1.000
"07/02/06","16:21:38","AMMA06",63963.000,"cc",28319.088,6.00,2831.909,1,6,0.100,34006.000,0.200,24114.000,0.300,3641.000,0.500,1339.000,1.000,863.000,5.000,0
"07/02/06","16:21:44","AMMA06",63983.000,"cc",28308.336,6.00,2830.834,1,6,0.100,34024.000,0.200,23915.000,0.300,3669.000,0.500,1417.000,1.000,956.000,5.000,2.000
"07/02/06","16:21:50","AMMA06",64154.000,"cc",28276.430,6.00,2827.643,1,6,0.100,34408.000,0.200,23894.000,0.300,3636.000,0.500,1383.000,1.000,833.000,5.000,0
"07/02/06","16:21:56","AMMA06",64041.000,"cc",28353.190,6.00,2835.319,1,6,0.100,33919.000,0.200,24066.000,0.300,3746.000,0.500,1418.000,1.000,890.000,5.000,2.000
"07/02/06","16:22:02","AMMA06",63826.000,"cc",28345.459,6.00,2834.546,1,6,0.100,34071.000,0.200,23737.000,0.300,3681.000,0.500,1435.000,1.000,902.000,5.000,0
"07/02/06","16:22:08","AMMA06",63613.000,"cc",28329.273,6.00,2832.928,1,6,0.100,33761.000,0.200,23903.000,0.300,3621.000,0.500,1430.000,1.000,898.000,5.000,0
"07/02/06","16:22:14","AMMA06",63758.000,"cc",28302.418,6.00,2830.242,1,6,0.100,33876.000,0.200,23836.000,0.300,3711.000,0.500,1434.000,1.000,901.000,5.000,0
"07/02/06","16:22:20","AMMA06",63856.000,"cc",28328.940,6.00,2832.894,1,6,0.100,33818.000,0.200,24038.000,0.300,3650.000,0.500,1454.000,1.000,895.000,5.000,1.000
"07/02/06","16:22:26","AMMA06",63727.000,"cc",28290.477,6.00,2829.048,1,6,0.100,33936.000,0.200,23821.000,0.300,3622.000,0.500,1421.000,1.000,927.000,5.000,0
"07/02/06","16:22:32","AMMA06",63823.000,"cc",28310.693,6.00,2831.070,1,6,0.100,33888.000,0.200,23983.000,0.300,3608.000,0.500,1453.000,1.000,891.000,5.000,0
"07/02/06","16:22:38","AMMA06",64073.000,"cc",28291.356,6.00,2829.136,1,6,0.100,34224.000,0.200,23840.000,0.300,3721.000,0.500,1400.000,1.000,888.000,5.000,0
"07/02/06","16:22:44","AMMA06",63703.000,"cc",28411.055,6.00,2841.106,1,6,0.100,34069.000,0.200,23619.000,0.300,3749.000,0.500,1373.000,1.000,892.000,5.000,1.000
"07/02/06","16:22:50","AMMA06",63695.000,"cc",28271.699,6.00,2827.170,1,6,0.100,33881.000,0.200,23879.000,0.300,3629.000,0.500,1382.000,1.000,923.000,5.000,1.000
"07/02/06","16:22:56","AMMA06",63340.000,"cc",28328.008,6.00,2832.801,1,6,0.100,33677.000,0.200,23746.000,0.300,3624.000,0.500,1398.000,1.000,895.000,5.000,0
"07/02/06","16:23:02","AMMA06",63511.000,"cc",28293.701,6.00,2829.370,1,6,0.100,33727.000,0.200,23798.000,0.300,3732.000,0.500,1391.000,1.000,863.000,5.000,0
"07/02/06","16:23:08","AMMA06",63650.000,"cc",28311.334,6.00,2831.134,1,6,0.100,33899.000,0.200,24021.000,0.300,3466.000,0.500,1403.000,1.000,861.000,5.000,0
"07/02/06","16:23:14","AMMA06",64015.000,"cc",28334.959,6.00,2833.496,1,6,0.100,33817.000,0.200,24109.000,0.300,3760.000,0.500,1437.000,1.000,892.000,5.000,0
"07/02/06","16:23:20","AMMA06",63873.000,"cc",28310.504,6.00,2831.051,1,6,0.100,33871.000,0.200,24045.000,0.300,3707.000,0.500,1340.000,1.000,910.000,5.000,0
"07/02/06","16:23:26","AMMA06",64079.000,"cc",28306.777,6.00,2830.678,1,6,0.100,33990.000,0.200,24019.000,0.300,3746.000,0.500,1428.000,1.000,896.000,5.000,0
"07/02/06","16:23:32","AMMA06",63700.000,"cc",28310.514,6.00,2831.052,1,6,0.100,33877.000,0.200,23894.000,0.300,3668.000,0.500,1380.000,1.000,880.000,5.000,1.000
"07/02/06","16:23:38","AMMA06",64016.000,"cc",28343.397,6.00,2834.340,1,6,0.100,34061.000,0.200,23940.000,0.300,3704.000,0.500,1429.000,1.000,881.000,5.000,1.000
"07/02/06","16:23:44","AMMA06",63950.000,"cc",28314.967,6.00,2831.497,1,6,0.100,33877.000,0.200,24049.000,0.300,3723.000,0.500,1410.000,1.000,891.000,5.000,0
"07/02/06","16:23:50","AMMA06",63585.000,"cc",28305.268,6.00,2830.527,1,6,0.100,33456.000,0.200,24143.000,0.300,3782.000,0.500,1381.000,1.000,822.000,5.000,1.000
"07/02/06","16:23:56","AMMA06",63935.000,"cc",28313.301,6.00,2831.330,1,6,0.100,33777.000,0.200,24173.000,0.300,3680.000,0.500,1405.000,1.000,900.000,5.000,0
"07/02/06","16:24:02","AMMA06",63598.000,"cc",28335.955,6.00,2833.596,1,6,0.100,33641.000,0.200,23970.000,0.300,3692.000,0.500,1403.000,1.000,892.000,5.000,0
"07/02/06","16:24:08","AMMA06",63821.000,"cc",28362.000,6.00,2836.200,1,6,0.100,33907.000,0.200,23995.000,0.300,3676.000,0.500,1387.000,1.000,856.000,5.000,0
"07/02/06","16:24:14","AMMA06",63825.000,"cc",28315.688,6.00,2831.569,1,6,0.100,33624.000,0.200,24102.000,0.300,3815.000,0.500,1398.000,1.000,886.000,5.000,0
"07/02/06","16:24:20","AMMA06",63583.000,"cc",28322.279,6.00,2832.228,1,6,0.100,33680.000,0.200,23850.000,0.300,3760.000,0.500,1395.000,1.000,898.000,5.000,0
"07/02/06","16:24:26","AMMA06",63303.000,"cc",28270.006,6.00,2827.001,1,6,0.100,33156.000,0.200,24045.000,0.300,3846.000,0.500,1394.000,1.000,862.000,5.000,0
"07/02/06","16:24:32","AMMA06",63351.000,"cc",28321.436,6.00,2832.144,1,6,0.100,33194.000,0.200,24072.000,0.300,3784.000,0.500,1408.000,1.000,891.000,5.000,2.000
"07/02/06","16:24:38","AMMA06",63487.000,"cc",28285.924,6.00,2828.593,1,6,0.100,33383.000,0.200,24152.000,0.300,3729.000,0.500,1400.000,1.000,823.000,5.000,0
"07/02/06","16:24:44","AMMA06",63569.000,"cc",28335.135,6.00,2833.514,1,6,0.100,33033.000,0.200,24345.000,0.300,3826.000,0.500,1478.000,1.000,887.000,5.000,0
"07/02/06","16:24:50","AMMA06",64137.000,"cc",28356.188,6.00,2835.619,1,6,0.100,33785.000,0.200,24156.000,0.300,3805.000,0.500,1465.000,1.000,925.000,5.000,1.000
"07/02/06","16:24:56","AMMA06",64029.000,"cc",28354.945,6.00,2835.495,1,6,0.100,33439.000,0.200,24537.000,0.300,3686.000,0.500,1402.000,1.000,965.000,5.000,0
"07/02/06","16:25:02","AMMA06",63794.000,"cc",28269.049,6.00,2826.905,1,6,0.100,33287.000,0.200,24405.000,0.300,3761.000,0.500,1454.000,1.000,886.000,5.000,1.000
"07/02/06","16:25:08","AMMA06",63898.000,"cc",28318.652,6.00,2831.866,1,6,0.100,33548.000,0.200,24289.000,0.300,3687.000,0.500,1447.000,1.000,926.000,5.000,1.000
"07/02/06","16:25:14","AMMA06",63665.000,"cc",28301.822,6.00,2830.182,1,6,0.100,33313.000,0.200,24277.000,0.300,3806.000,0.500,1373.000,1.000,896.000,5.000,0
"07/02/06","16:25:20","AMMA06",63934.000,"cc",28349.418,6.00,2834.942,1,6,0.100,33716.000,0.200,24188.000,0.300,3738.000,0.500,1396.000,1.000,895.000,5.000,1.000
"07/02/06","16:25:26","AMMA06",63901.000,"cc",28334.994,6.00,2833.500,1,6,0.100,33491.000,0.200,24221.000,0.300,3820.000,0.500,1442.000,1.000,927.000,5.000,0
"07/02/06","16:25:32","AMMA06",63722.000,"cc",28271.305,6.00,2827.131,1,6,0.100,33169.000,0.200,24343.000,0.300,3920.000,0.500,1378.000,1.000,912.000,5.000,0